LU9FW-5 Weather Reports


time (UTC)temp
C
wind
direction
speed
KPH
gust
KPH
rain 1hr
cm
rain 24hr
cm
rain mn
cm
humidity
%
barometer
mb
20260505173438 23 0 3.2 6.4 0.00 0.00 0.00 85 1005.7
20260505173328 23 23 3.2 6.4 0.00 0.00 0.00 86 1005.6
20260505173218 23 0 4.8 6.4 0.00 0.00 0.00 86 1005.6
20260505173100 23 0 3.2 6.4 0.00 0.00 0.00 86 1005.4
20260505172951 23 22 3.2 6.4 0.00 0.00 0.00 86 1005.7
20260505172737 23 22 3.2 6.4 0.00 0.00 0.00 86 1005.7
20260505172620 23 22 1.6 6.4 0.00 0.00 0.00 86 1005.8
20260505172520 23 23 1.6 6.4 0.00 0.00 0.00 86 1005.7
20260505172444 23 23 1.6 6.4 0.00 0.00 0.00 86 1005.8
20260505172256 23 23 1.6 6.4 0.00 0.00 0.00 86 1005.6
20260505172140 23 45 3.2 6.4 0.00 0.00 0.00 86 1005.7
20260505172036 23 23 3.2 6.4 0.00 0.00 0.00 87 1005.6
20260505171925 23 45 3.2 6.4 0.00 0.00 0.00 86 1005.7
20260505171656 23 22 3.2 6.4 0.00 0.00 0.00 87 1005.6
20260505171546 23 22 3.2 6.4 0.00 0.00 0.00 86 1005.8
20260505171445 23 293 3.2 6.4 0.00 0.00 0.00 86 1005.7
20260505171333 23 293 3.2 6.4 0.00 0.00 0.00 87 1005.6
20260505171214 23 0 3.2 6.4 0.00 0.00 0.00 87 1005.8
20260505171106 23 0 3.2 6.4 0.00 0.00 0.00 86 1005.7
20260505170958 23 0 3.2 6.4 0.00 0.00 0.00 86 1005.9
20260505170850 23 0 3.2 6.4 0.00 0.00 0.00 86 1005.8
20260505170730 23 0 6.4 6.4 0.00 0.00 0.00 86 1005.7
20260505170628 23 23 3.2 6.4 0.00 0.00 0.00 87 1005.8
20260505170516 23 22 3.2 6.4 0.00 0.00 0.00 87 1005.8
20260505170432 23 0 3.2 6.4 0.00 0.00 0.00 88 1005.9
20260505170355 23 22 3.2 6.4 0.00 0.00 0.00 88 1005.9
20260505170142 23 22 4.8 6.4 0.00 0.00 0.00 89 1006.1
20260505170039 23 22 4.8 6.4 0.00 0.00 0.00 89 1005.8
20260505165935 23 22 3.2 6.4 0.00 0.00 0.00 90 1005.8
20260505165859 23 22 3.2 6.4 0.00 0.00 0.00 89 1006.0
20260505165658 23 22 4.8 6.4 0.00 0.00 0.00 89 1006.1
20260505165556 23 45 3.2 6.4 0.00 0.00 0.00 90 1006.1
20260505165444 22 22 3.2 6.4 0.00 0.00 0.00 90 1006.0
20260505165327 22 45 6.4 6.4 0.00 0.00 0.00 89 1006.1
20260505165109 22 22 4.8 6.4 0.00 0.00 0.00 90 1006.1
20260505165007 22 45 3.2 9.7 0.00 0.00 0.00 90 1006.1
20260505164900 22 22 4.8 9.7 0.00 0.00 0.00 91 1006.1
20260505164833 22 22 3.2 9.7 0.00 0.00 0.00 91 1006.1
20260505164631 22 45 3.2 9.7 0.00 0.00 0.00 92 1006.1
20260505164521 22 45 3.2 9.7 0.00 0.00 0.00 91 1006.1
20260505164400 22 0 4.8 9.7 0.00 0.00 0.00 91 1006.3
20260505164252 22 22 6.4 9.7 0.00 0.00 0.00 91 1006.2
20260505164148 22 45 4.8 9.7 0.00 0.00 0.00 91 1006.3
20260505164040 22 45 4.8 9.7 0.00 0.00 0.00 91 1006.3
20260505163921 22 45 6.4 11.3 0.00 0.00 0.00 90 1006.3
20260505163816 22 45 6.4 11.3 0.00 0.00 0.00 90 1006.4
20260505163717 22 22 6.4 11.3 0.00 0.00 0.00 90 1006.3
20260505163555 22 22 6.4 11.3 0.00 0.00 0.00 90 1006.3
20260505163437 22 22 6.4 12.9 0.00 0.00 0.00 90 1006.2
20260505163327 22 22 6.4 12.9 0.00 0.00 0.00 89 1006.4
20260505163224 22 22 6.4 12.9 0.00 0.00 0.00 89 1006.2
20260505163113 23 22 6.4 12.9 0.00 0.00 0.00 88 1006.2
20260505163000 23 22 6.4 12.9 0.00 0.00 0.00 88 1006.2
20260505162852 23 22 4.8 14.5 0.00 0.00 0.00 88 1006.1
20260505162740 23 22 8.0 14.5 0.00 0.00 0.00 86 1006.3
20260505162517 23 22 6.4 14.5 0.00 0.00 0.00 84 1006.4
20260505162409 23 22 9.7 14.5 0.00 0.00 0.00 84 1006.3
20260505162301 23 0 9.7 14.5 0.00 0.00 0.00 84 1006.4
20260505162149 23 22 6.4 14.5 0.00 0.00 0.00 83 1006.2
20260505162035 23 22 8.0 14.5 0.00 0.00 0.00 84 1006.4
20260505161923 23 22 11.3 14.5 0.00 0.00 0.00 84 1006.4
20260505161821 23 22 6.4 12.9 0.00 0.00 0.00 83 1006.3
20260505161744 23 22 8.0 14.5 0.00 0.00 0.00 84 1006.4
20260505161549 23 22 8.0 14.5 0.00 0.00 0.00 84 1006.6
20260505161441 23 22 9.7 14.5 0.00 0.00 0.00 85 1006.4
20260505161338 23 22 9.7 14.5 0.00 0.00 0.00 84 1006.5
20260505161227 23 0 9.7 14.5 0.00 0.00 0.00 85 1006.4
20260505161117 23 22 6.4 14.5 0.00 0.00 0.00 85 1006.7
20260505161004 23 22 8.0 14.5 0.00 0.00 0.00 85 1006.5
20260505160854 23 22 11.3 14.5 0.00 0.00 0.00 84 1006.7
20260505160745 23 0 12.9 14.5 0.00 0.00 0.00 84 1006.6
20260505160628 23 22 9.7 14.5 0.00 0.00 0.00 84 1006.6
20260505160516 23 45 9.7 14.5 0.00 0.00 0.00 84 1006.4
20260505160408 23 22 9.7 14.5 0.00 0.00 0.00 83 1006.6
20260505160308 23 22 11.3 14.5 0.00 0.00 0.00 83 1006.6
20260505160146 23 22 9.7 14.5 0.00 0.00 0.00 83 1006.8
20260505153334 23 22 12.9 14.5 0.00 0.00 0.00 83 1006.8
20260505153225 23 22 11.3 14.5 0.00 0.00 0.00 83 1006.7
20260505153116 23 22 9.7 14.5 0.00 0.00 0.00 83 1006.8
20260505153013 23 0 8.0 14.5 0.00 0.00 0.00 84 1006.9
20260505152854 23 22 8.0 17.7 0.00 0.00 0.00 84 1006.7
20260505152745 23 45 9.7 17.7 0.00 0.00 0.00 84 1006.8
20260505152639 23 22 11.3 17.7 0.00 0.00 0.00 84 1007.1
20260505152532 23 0 8.0 17.7 0.00 0.00 0.00 83 1006.9
20260505152411 23 0 12.9 17.7 0.00 0.00 0.00 84 1006.8
20260505152305 23 0 11.3 17.7 0.00 0.00 0.00 84 1006.9
20260505152153 23 22 11.3 17.7 0.00 0.00 0.00 84 1006.9
20260505152043 23 22 11.3 17.7 0.00 0.00 0.00 84 1006.5
20260505151938 23 22 12.9 17.7 0.00 0.00 0.00 84 1006.9
20260505151817 23 22 12.9 17.7 0.00 0.00 0.00 84 1006.7
20260505151709 23 45 11.3 17.7 0.00 0.00 0.00 83 1006.7
20260505151607 23 0 12.9 17.7 0.00 0.00 0.00 83 1006.8
20260505151448 23 22 12.9 17.7 0.00 0.00 0.00 83 1006.8
20260505151337 23 45 12.9 17.7 0.00 0.00 0.00 83 1006.8
20260505151229 23 45 11.3 17.7 0.00 0.00 0.00 83 1006.9
20260505151119 23 0 12.9 17.7 0.00 0.00 0.00 83 1006.8
20260505151001 23 22 11.3 17.7 0.00 0.00 0.00 82 1006.7
20260505150750 23 23 11.3 20.9 0.00 0.00 0.00 83 1006.7
20260505150639 23 0 12.9 20.9 0.00 0.00 0.00 84 1006.7
20260505150521 23 22 12.9 20.9 0.00 0.00 0.00 83 1006.8
20260505150411 23 22 9.7 20.9 0.00 0.00 0.00 84 1006.8
20260505150309 23 22 9.7 20.9 0.00 0.00 0.00 84 1006.7
20260505150203 22 22 11.3 20.9 0.00 0.00 0.00 85 1006.8
20260505140640 22 22 12.9 17.7 0.00 0.00 0.00 87 1007.0
20260505140532 22 0 12.9 17.7 0.00 0.00 0.00 87 1007.0
20260505140413 21 0 12.9 17.7 0.00 0.00 0.00 87 1007.1
20260505140305 21 22 12.9 17.7 0.00 0.00 0.00 88 1006.9
20260505140205 21 22 12.9 17.7 0.00 0.00 0.00 88 1007.0
20260505130312 19 0 6.4 12.9 0.00 0.00 0.00 94 1007.3
20260505130202 19 0 11.3 12.9 0.00 0.00 0.00 94 1007.2
20260505125021 18 0 9.7 11.3 0.00 0.00 0.00 94 1007.1
20260505124907 18 0 6.4 11.3 0.00 0.00 0.00 94 1007.3
20260505124757 18 0 6.4 11.3 0.00 0.00 0.00 94 1007.3
20260505124649 18 0 6.4 11.3 0.00 0.00 0.00 94 1007.0
20260505124541 18 0 6.4 11.3 0.00 0.00 0.00 94 1007.1
20260505124430 18 0 6.4 11.3 0.00 0.00 0.00 95 1007.2
20260505124320 18 0 6.4 12.9 0.00 0.00 0.00 95 1007.1
20260505124210 18 23 6.4 12.9 0.00 0.00 0.00 95 1007.1
20260505124101 18 0 6.4 12.9 0.00 0.00 0.00 95 1007.2
20260505123941 18 0 6.4 12.9 0.00 0.00 0.00 95 1007.2
20260505123832 18 23 6.4 12.9 0.00 0.00 0.00 95 1007.3
20260505123724 18 0 8.0 12.9 0.00 0.00 0.00 95 1007.4
20260505123618 18 0 6.4 12.9 0.00 0.00 0.00 95 1007.4
20260505123502 18 0 6.4 12.9 0.00 0.00 0.00 95 1007.2
20260505123242 18 0 6.4 11.3 0.00 0.00 0.00 95 1007.3
20260505123133 18 22 6.4 11.3 0.00 0.00 0.00 95 1007.4
20260505123033 18 0 6.4 11.3 0.00 0.00 0.00 95 1007.4
20260505123002 18 0 6.4 11.3 0.00 0.00 0.00 95 1007.3
20260505122800 18 23 8.0 11.3 0.00 0.00 0.00 95 1007.3
20260505122658 18 0 8.0 11.3 0.00 0.00 0.00 95 1007.4
20260505122540 18 23 6.4 11.3 0.00 0.00 0.00 95 1007.3
20260505122429 18 0 6.4 11.3 0.00 0.00 0.00 95 1007.2
20260505122317 18 0 6.4 11.3 0.00 0.00 0.00 95 1007.3
20260505122213 18 0 6.4 11.3 0.00 0.00 0.00 95 1007.2
20260505122056 18 0 6.4 11.3 0.00 0.00 0.00 95 1007.1
20260505121945 18 0 8.0 11.3 0.00 0.00 0.00 95 1007.4
20260505121845 18 23 8.0 11.3 0.00 0.00 0.00 95 1007.1
20260505121734 18 0 8.0 11.3 0.00 0.00 0.00 95 1007.3
20260505121615 18 23 6.4 11.3 0.00 0.00 0.00 95 1007.2
20260505121502 18 0 8.0 11.3 0.00 0.00 0.00 95 1007.0
20260505121354 18 23 6.4 12.9 0.00 0.00 0.00 95 1007.1
20260505121250 18 23 8.0 12.9 0.00 0.00 0.00 96 1007.2
20260505121133 18 0 8.0 12.9 0.00 0.00 0.00 96 1007.3
20260505121031 18 0 8.0 12.9 0.00 0.00 0.00 96 1007.1
20260505120952 18 0 6.4 12.9 0.00 0.00 0.00 96 1007.1
20260505120915 18 0 6.4 12.9 0.00 0.00 0.00 96 1007.2
20260505120648 18 0 8.0 12.9 0.00 0.00 0.00 96 1007.3
20260505120537 18 0 8.0 12.9 0.00 0.00 0.00 96 1007.2
20260505120445 18 22 8.0 12.9 0.00 0.00 0.00 96 1007.3
20260505120409 18 0 8.0 11.3 0.00 0.00 0.00 96 1007.1
20260505120206 18 0 9.7 11.3 0.00 0.00 0.00 96 1007.1
20260505115954 18 0 8.0 11.3 0.00 0.00 0.00 96 1007.1
20260505115844 18 0 6.4 11.3 0.00 0.00 0.00 96 1007.0
20260505115721 18 0 8.0 11.3 0.00 0.00 0.00 96 1006.8
20260505115612 18 22 8.0 11.3 0.00 0.00 0.00 96 1006.9
20260505115512 18 0 9.7 11.3 0.00 0.00 0.00 96 1006.8
20260505115402 18 23 6.4 11.3 0.00 0.00 0.00 96 1006.5
20260505115133 18 0 8.0 11.3 0.00 0.00 0.00 96 1006.5
20260505115031 18 23 6.4 11.3 0.00 0.00 0.00 96 1006.6
20260505114918 18 0 6.4 11.3 0.00 0.00 0.00 96 1006.8
20260505114758 18 0 6.4 11.3 0.00 0.00 0.00 97 1006.7
20260505114655 18 23 4.8 11.3 0.00 0.00 0.00 97 1006.6
20260505114547 17 0 6.4 11.3 0.00 0.00 0.00 97 1006.4
20260505114436 17 0 6.4 11.3 0.00 0.00 0.00 97 1006.6
20260505114318 17 0 6.4 9.7 0.00 0.00 0.00 97 1006.7
20260505114104 17 23 6.4 9.7 0.00 0.00 0.00 97 1006.5
20260505113954 17 23 6.4 9.7 0.00 0.00 0.00 97 1006.6
20260505113840 17 0 6.4 9.7 0.00 0.00 0.00 97 1006.5
20260505113732 17 23 6.4 9.7 0.00 0.00 0.00 97 1006.5
20260505113621 17 23 6.4 9.7 0.00 0.00 0.00 97 1006.6
20260505113510 17 23 6.4 9.7 0.00 0.00 0.00 97 1006.6
20260505113354 17 23 6.4 9.7 0.00 0.00 0.00 97 1006.6
20260505113243 17 0 6.4 9.7 0.00 0.00 0.00 97 1006.6
20260505113142 17 0 6.4 9.7 0.00 0.00 0.00 97 1006.5
20260505113033 17 23 6.4 9.7 0.00 0.00 0.00 97 1006.6
20260505112914 17 0 4.8 9.7 0.00 0.00 0.00 97 1006.6
20260505112801 17 0 6.4 9.7 0.00 0.00 0.00 97 1006.7
20260505112701 17 0 6.4 6.4 0.00 0.00 0.00 97 1006.5
20260505112550 17 23 4.8 6.4 0.00 0.00 0.00 97 1006.4
20260505112434 17 23 4.8 6.4 0.00 0.00 0.00 97 1006.2
20260505112323 17 23 3.2 6.4 0.00 0.00 0.00 97 1006.4
20260505112221 17 23 4.8 6.4 0.00 0.00 0.00 97 1006.2
20260505112104 17 45 3.2 6.4 0.00 0.00 0.00 97 1006.3
20260505111946 17 45 4.8 6.4 0.00 0.00 0.00 97 1006.2
20260505111837 17 0 4.8 6.4 0.00 0.00 0.00 97 1006.6
20260505111735 17 0 4.8 6.4 0.00 0.00 0.00 97 1006.5
20260505111506 17 23 3.2 6.4 0.00 0.00 0.00 97 1006.5
20260505111403 17 23 4.8 6.4 0.00 0.00 0.00 97 1006.3
20260505111255 17 0 4.8 6.4 0.00 0.00 0.00 97 1006.3
20260505111144 17 0 4.8 6.4 0.00 0.00 0.00 97 1006.5
20260505111033 17 23 3.2 6.4 0.00 0.00 0.00 97 1006.3
20260505110916 17 45 3.2 6.4 0.00 0.00 0.00 97 1006.3
20260505110808 17 0 4.8 6.4 0.00 0.00 0.00 97 1006.5
20260505110658 17 0 6.4 6.4 0.00 0.00 0.00 97 1006.7
20260505110547 17 0 6.4 9.7 0.00 0.00 0.00 97 1006.7
20260505110436 17 0 4.8 9.7 0.00 0.00 0.00 97 1006.6
20260505110328 17 45 4.8 9.7 0.00 0.00 0.00 97 1006.5
20260505110218 17 45 6.4 9.7 0.00 0.00 0.00 98 1006.6
20260505110118 17 0 4.8 9.7 0.00 0.00 0.00 98 1006.5
20260505102221 16 23 3.2 3.2 0.00 0.00 0.00 98 1006.1
20260505102110 16 45 3.2 3.2 0.00 0.00 0.00 98 1006.3
20260505102002 16 23 3.2 3.2 0.00 0.00 0.00 98 1006.1
20260505101841 16 23 3.2 3.2 0.00 0.00 0.00 98 1006.1
20260505101731 16 0 3.2 3.2 0.00 0.00 0.00 98 1006.1
20260505101628 16 23 3.2 3.2 0.00 0.00 0.00 98 1006.1
20260505101522 16 23 3.2 3.2 0.00 0.00 0.00 98 1006.2
20260505101401 16 23 3.2 3.2 0.00 0.00 0.00 98 1006.1
20260505101253 16 23 3.2 3.2 0.00 0.00 0.00 98 1005.9
20260505101145 16 23 3.2 3.2 0.00 0.00 0.00 98 1006.2
20260505101101 16 23 3.2 3.2 0.00 0.00 0.00 98 1006.1
20260505101034 16 23 3.2 3.2 0.00 0.00 0.00 98 1005.9
20260505100808 16 23 3.2 3.2 0.00 0.00 0.00 98 1006.1
20260505100706 16 0 3.2 3.2 0.00 0.00 0.00 98 1006.1
20260505100557 16 0 1.6 3.2 0.00 0.00 0.00 98 1006.1
20260505100438 16 23 0.0 3.2 0.00 0.00 0.00 98 1006.0
20260505100328 16 23 3.2 3.2 0.00 0.00 0.00 98 1005.9
20260505100226 16 23 3.2 3.2 0.00 0.00 0.00 98 1005.8
20260505100118 16 0 3.2 3.2 0.00 0.00 0.00 98 1005.8
20260505100008 16 0 3.2 3.2 0.00 0.00 0.00 98 1005.8
20260505095738 16 0 3.2 3.2 0.00 0.00 0.00 98 1005.8
20260505095630 16 0 3.2 3.2 0.00 0.00 0.00 98 1005.8
20260505095511 16 0 3.2 3.2 0.00 0.00 0.00 98 1005.8
20260505095408 16 0 1.6 3.2 0.00 0.00 0.00 98 1005.8
20260505095257 16 22 3.2 3.2 0.00 0.00 0.00 98 1006.1
20260505095153 16 22 3.2 3.2 0.00 0.00 0.00 98 1005.8
20260505095034 16 22 3.2 3.2 0.00 0.00 0.00 98 1005.8
20260505094926 16 0 3.2 3.2 0.00 0.00 0.00 98 1005.7
20260505094815 16 23 3.2 3.2 0.00 0.00 0.00 98 1005.6
20260505094706 16 23 3.2 3.2 0.00 0.00 0.00 98 1005.7
20260505094548 16 23 3.2 3.2 0.00 0.00 0.00 98 1005.6
20260505094438 16 23 3.2 3.2 0.00 0.00 0.00 98 1005.7
20260505094224 16 23 3.2 3.2 0.00 0.00 0.00 97 1005.7
20260505094106 16 45 3.2 3.2 0.00 0.00 0.00 98 1005.8
20260505094002 16 45 3.2 3.2 0.00 0.00 0.00 98 1005.7
20260505093854 16 45 3.2 3.2 0.00 0.00 0.00 98 1005.7
20260505093743 16 45 3.2 3.2 0.00 0.00 0.00 98 1005.7
20260505093624 16 45 3.2 3.2 0.00 0.00 0.00 98 1005.8
20260505093516 16 23 3.2 3.2 0.00 0.00 0.00 97 1005.8
20260505093410 16 23 3.2 3.2 0.00 0.00 0.00 98 1005.7
20260505093140 16 45 3.2 3.2 0.00 0.00 0.00 97 1005.7
20260505093041 16 23 3.2 3.2 0.00 0.00 0.00 97 1005.7
20260505092930 16 23 3.2 3.2 0.00 0.00 0.00 97 1005.7
20260505092818 16 23 3.2 3.2 0.00 0.00 0.00 97 1005.6
20260505092658 16 23 3.2 3.2 0.00 0.00 0.00 97 1005.6
20260505092556 16 23 1.6 3.2 0.00 0.00 0.00 97 1005.7
20260505092448 16 23 0.0 0.0 0.00 0.00 0.00 97 1005.6
20260505092337 16 23 0.0 0.0 0.00 0.00 0.00 97 1005.4
20260505092224 16 45 0.0 0.0 0.00 0.00 0.00 97 1005.6
20260505092112 16 45 0.0 0.0 0.00 0.00 0.00 97 1005.6
20260505092002 16 45 0.0 0.0 0.00 0.00 0.00 97 1005.6
20260505091900 16 23 0.0 0.0 0.00 0.00 0.00 97 1005.6
20260505091630 15 45 0.0 0.0 0.00 0.00 0.00 97 1005.4
20260505091520 15 23 0.0 0.0 0.00 0.00 0.00 97 1005.6
20260505091411 15 23 0.0 0.0 0.00 0.00 0.00 97 1005.7
20260505091254 15 23 0.0 0.0 0.00 0.00 0.00 97 1005.6
20260505091144 15 45 0.0 0.0 0.00 0.00 0.00 97 1005.7
20260505091044 15 45 0.0 0.0 0.00 0.00 0.00 97 1005.8
20260505090934 15 45 0.0 0.0 0.00 0.00 0.00 97 1005.6
20260505090815 15 23 0.0 0.0 0.00 0.00 0.00 97 1005.5
20260505090601 15 23 0.0 0.0 0.00 0.00 0.00 97 1005.7
20260505090453 15 45 0.0 0.0 0.00 0.00 0.00 97 1005.6
20260505090334 15 45 0.0 3.2 0.00 0.00 0.00 97 1005.6
20260505090226 15 45 0.0 3.2 0.00 0.00 0.00 97 1005.7
20260505090117 15 45 0.0 3.2 0.00 0.00 0.00 97 1005.5
20260505090009 15 23 0.0 3.2 0.00 0.00 0.00 97 1005.5
20260505085849 15 23 0.0 3.2 0.00 0.00 0.00 97 1005.6
20260505085739 15 23 0.0 3.2 0.00 0.00 0.00 97 1005.5
20260505085635 15 23 0.0 3.2 0.00 0.00 0.00 97 1005.6
20260505085525 15 45 0.0 3.2 0.00 0.00 0.00 97 1005.4
20260505085408 15 45 1.6 3.2 0.00 0.00 0.00 97 1005.5
20260505085258 15 45 3.2 3.2 0.00 0.00 0.00 97 1005.5
20260505085157 15 45 3.2 3.2 0.00 0.00 0.00 97 1005.4
20260505085045 15 45 3.2 3.2 0.00 0.00 0.00 97 1005.5
20260505084929 15 23 3.2 3.2 0.00 0.00 0.00 97 1005.5
20260505084818 15 23 3.2 3.2 0.00 0.00 0.00 97 1005.4
20260505084709 15 23 3.2 3.2 0.00 0.00 0.00 97 1005.4
20260505084606 15 23 3.2 3.2 0.00 0.00 0.00 97 1005.5
20260505084444 15 45 0.0 3.2 0.00 0.00 0.00 97 1005.3
20260505084336 15 45 0.0 3.2 0.00 0.00 0.00 97 1005.5
20260505084233 15 45 0.0 3.2 0.00 0.00 0.00 97 1005.7
20260505084001 15 45 0.0 3.2 0.00 0.00 0.00 97 1005.7
20260505083851 15 45 0.0 3.2 0.00 0.00 0.00 97 1005.6
20260505083746 15 45 0.0 3.2 0.00 0.00 0.00 97 1005.6
20260505083643 15 45 1.6 3.2 0.00 0.00 0.00 97 1005.6
20260505083524 15 45 1.6 3.2 0.00 0.00 0.00 97 1005.4
20260505083412 14 45 1.6 3.2 0.00 0.00 0.00 97 1005.6
20260505083302 14 45 0.0 0.0 0.00 0.00 0.00 97 1005.6
20260505083159 14 45 0.0 0.0 0.00 0.00 0.00 97 1005.5
20260505083040 14 90 0.0 0.0 0.00 0.00 0.00 97 1005.6
20260505082930 13 90 0.0 0.0 0.00 0.00 0.00 97 1005.5
20260505082822 13 90 0.0 0.0 0.00 0.00 0.00 97 1005.3
20260505082711 13 68 0.0 0.0 0.00 0.00 0.00 96 1005.5
20260505082601 13 45 0.0 0.0 0.00 0.00 0.00 96 1005.4
20260505082449 13 45 0.0 0.0 0.00 0.00 0.00 96 1005.5
20260505082339 13 45 0.0 3.2 0.00 0.00 0.00 96 1005.5
20260505082239 13 45 0.0 3.2 0.00 0.00 0.00 96 1005.7
20260505082203 13 45 0.0 3.2 0.00 0.00 0.00 96 1005.4
20260505082008 13 45 0.0 3.2 0.00 0.00 0.00 96 1005.7
20260505081856 13 45 0.0 3.2 0.00 0.00 0.00 96 1005.5
20260505081747 13 45 0.0 3.2 0.00 0.00 0.00 96 1005.6
20260505081634 13 45 0.0 3.2 0.00 0.00 0.00 96 1005.5
20260505081418 13 45 1.6 3.2 0.00 0.00 0.00 95 1005.4
20260505081308 13 45 1.6 3.2 0.00 0.00 0.00 96 1005.3
20260505081149 13 23 0.0 0.0 0.00 0.00 0.00 95 1005.3
20260505081046 13 23 0.0 0.0 0.00 0.00 0.00 95 1005.5
20260505080931 13 23 0.0 0.0 0.00 0.00 0.00 95 1005.4
20260505080831 13 23 0.0 0.0 0.00 0.00 0.00 95 1005.4
20260505080710 13 23 0.0 0.0 0.00 0.00 0.00 95 1005.4
20260505080559 13 0 0.0 0.0 0.00 0.00 0.00 95 1005.3
20260505080455 13 0 0.0 0.0 0.00 0.00 0.00 95 1005.3
20260505080346 14 0 0.0 0.0 0.00 0.00 0.00 95 1005.2
20260505080226 14 0 0.0 0.0 0.00 0.00 0.00 95 1005.4
20260505080150 14 0 0.0 0.0 0.00 0.00 0.00 95 1005.5
20260505080123 14 22 0.0 0.0 0.00 0.00 0.00 94 1005.4
20260505075906 14 22 0.0 0.0 0.00 0.00 0.00 94 1005.4
20260505075741 14 22 0.0 3.2 0.00 0.00 0.00 94 1005.4
20260505075645 14 22 0.0 3.2 0.00 0.00 0.00 94 1005.5
20260505075618 14 22 0.0 3.2 0.00 0.00 0.00 94 1005.7
20260505075423 14 22 0.0 3.2 0.00 0.00 0.00 94 1005.6
20260505075305 14 22 0.0 3.2 0.00 0.00 0.00 94 1005.6
20260505075154 14 22 0.0 3.2 0.00 0.00 0.00 94 1005.6
20260505075046 14 22 0.0 3.2 0.00 0.00 0.00 94 1005.7
20260505074823 14 22 0.0 6.4 0.00 0.00 0.00 94 1005.5
20260505074713 14 0 1.6 6.4 0.00 0.00 0.00 93 1005.5
20260505074602 15 22 1.6 6.4 0.00 0.00 0.00 93 1005.5
20260505074500 15 22 3.2 6.4 0.00 0.00 0.00 93 1005.7
20260505074339 15 22 3.2 6.4 0.00 0.00 0.00 93 1005.6
20260505074228 15 22 3.2 6.4 0.00 0.00 0.00 93 1005.5
20260505074126 15 22 3.2 6.4 0.00 0.00 0.00 93 1005.6
20260505074014 15 22 3.2 6.4 0.00 0.00 0.00 93 1005.6
20260505073854 15 22 3.2 6.4 0.00 0.00 0.00 93 1005.5
20260505073745 15 22 3.2 6.4 0.00 0.00 0.00 93 1005.5
20260505073643 15 22 3.2 3.2 0.00 0.00 0.00 93 1005.6
20260505073559 15 45 3.2 3.2 0.00 0.00 0.00 93 1005.8
20260505073524 15 45 3.2 3.2 0.00 0.00 0.00 93 1005.5
20260505073308 15 45 3.2 6.4 0.00 0.00 0.00 93 1005.5
20260505073157 15 45 3.2 6.4 0.00 0.00 0.00 93 1005.4
20260505073049 15 22 3.2 6.4 0.00 0.00 0.00 92 1005.6
20260505072931 15 22 3.2 6.4 0.00 0.00 0.00 92 1005.4
20260505072825 15 22 3.2 6.4 0.00 0.00 0.00 92 1005.3
20260505072715 15 22 3.2 6.4 0.00 0.00 0.00 92 1005.5
20260505072611 15 22 3.2 6.4 0.00 0.00 0.00 92 1005.4
20260505072511 15 22 3.2 6.4 0.00 0.00 0.00 92 1005.5
20260505072450 15 22 3.2 6.4 0.00 0.00 0.00 92 1005.4
20260505072233 15 22 3.2 6.4 0.00 0.00 0.00 92 1005.5
20260505072131 15 22 4.8 6.4 0.00 0.00 0.00 92 1005.6
20260505072030 15 0 3.2 6.4 0.00 0.00 0.00 92 1005.5
20260505071954 15 22 3.2 6.4 0.00 0.00 0.00 92 1005.4
20260505071751 15 22 4.8 6.4 0.00 0.00 0.00 92 1005.4
20260505071648 15 22 4.8 6.4 0.00 0.00 0.00 92 1005.4
20260505071528 15 22 3.2 6.4 0.00 0.00 0.00 92 1005.4
20260505071418 15 0 3.2 6.4 0.00 0.00 0.00 91 1005.4
20260505071314 15 0 3.2 6.4 0.00 0.00 0.00 91 1005.2
20260505071206 15 0 3.2 6.4 0.00 0.00 0.00 91 1005.2
20260505071047 15 0 3.2 6.4 0.00 0.00 0.00 91 1005.4
20260505070935 15 0 3.2 6.4 0.00 0.00 0.00 91 1005.3
20260505070836 15 22 3.2 6.4 0.00 0.00 0.00 91 1005.3
20260505070724 15 0 4.8 6.4 0.00 0.00 0.00 91 1005.3
20260505070605 15 0 4.8 6.4 0.00 0.00 0.00 91 1005.3
20260505070454 16 0 4.8 6.4 0.00 0.00 0.00 90 1005.2
20260505070346 16 0 4.8 6.4 0.00 0.00 0.00 90 1005.2
20260505070244 16 0 6.4 6.4 0.00 0.00 0.00 90 1005.3
20260505070123 16 0 4.8 6.4 0.00 0.00 0.00 90 1005.2
20260505070012 16 23 4.8 6.4 0.00 0.00 0.00 90 1005.3
20260505065904 16 23 4.8 6.4 0.00 0.00 0.00 90 1005.1
20260505065642 16 23 4.8 6.4 0.00 0.00 0.00 90 1005.1
20260505065531 16 23 4.8 6.4 0.00 0.00 0.00 90 1005.2
20260505065423 16 23 4.8 6.4 0.00 0.00 0.00 90 1005.3
20260505065313 16 23 3.2 6.4 0.00 0.00 0.00 90 1005.3
20260505065155 16 23 3.2 6.4 0.00 0.00 0.00 90 1005.4
20260505065045 16 23 3.2 6.4 0.00 0.00 0.00 90 1005.4
20260505064944 16 0 3.2 6.4 0.00 0.00 0.00 90 1005.3
20260505064832 15 0 3.2 6.4 0.00 0.00 0.00 89 1005.4
20260505064714 15 23 3.2 6.4 0.00 0.00 0.00 89 1005.3
20260505064605 15 23 4.8 6.4 0.00 0.00 0.00 89 1005.3
20260505064456 15 23 4.8 6.4 0.00 0.00 0.00 89 1005.4
20260505064354 15 23 4.8 6.4 0.00 0.00 0.00 89 1005.3
20260505064238 15 23 4.8 6.4 0.00 0.00 0.00 89 1005.5
20260505064126 15 45 4.8 6.4 0.00 0.00 0.00 89 1005.5
20260505064015 15 23 4.8 6.4 0.00 0.00 0.00 89 1005.7
20260505063913 15 23 4.8 6.4 0.00 0.00 0.00 89 1005.5
20260505063751 15 23 4.8 6.4 0.00 0.00 0.00 89 1005.6
20260505063641 15 45 4.8 6.4 0.00 0.00 0.00 89 1005.7
20260505063539 15 23 4.8 6.4 0.00 0.00 0.00 89 1005.5
20260505063429 15 23 3.2 6.4 0.00 0.00 0.00 89 1005.7
20260505063313 15 23 3.2 6.4 0.00 0.00 0.00 89 1005.7
20260505063052 15 23 3.2 6.4 0.00 0.00 0.00 89 1005.6
20260505062942 15 23 3.2 3.2 0.00 0.00 0.00 89 1005.8
20260505062824 15 23 3.2 3.2 0.00 0.00 0.00 89 1005.7
20260505062724 15 23 3.2 3.2 0.00 0.00 0.00 88 1005.5
20260505062610 15 23 3.2 6.4 0.00 0.00 0.00 88 1005.6
20260505062501 15 23 3.2 6.4 0.00 0.00 0.00 88 1005.7
20260505062347 15 23 3.2 6.4 0.00 0.00 0.00 88 1005.6
20260505062237 15 0 3.2 6.4 0.00 0.00 0.00 88 1005.7
20260505062127 15 23 3.2 6.4 0.00 0.00 0.00 88 1005.8
20260505062025 15 23 3.2 6.4 0.00 0.00 0.00 88 1005.7
20260505061906 15 23 3.2 6.4 0.00 0.00 0.00 88 1005.7
20260505061758 15 23 3.2 6.4 0.00 0.00 0.00 88 1005.7
20260505061542 15 0 3.2 6.4 0.00 0.00 0.00 88 1005.8
20260505061423 15 0 3.2 6.4 0.00 0.00 0.00 88 1005.8
20260505061313 15 0 3.2 6.4 0.00 0.00 0.00 87 1005.8
20260505061209 15 0 3.2 6.4 0.00 0.00 0.00 87 1005.8
20260505061059 15 23 3.2 6.4 0.00 0.00 0.00 87 1005.8
20260505060939 15 0 3.2 6.4 0.00 0.00 0.00 87 1005.9
20260505060835 15 0 3.2 6.4 0.00 0.00 0.00 87 1005.9
20260505060741 15 22 3.2 6.4 0.00 0.00 0.00 87 1005.9
20260505060712 15 0 3.2 6.4 0.00 0.00 0.00 88 1005.7
20260505060341 15 22 4.8 0.0 0.00 0.00 0.00 87 1005.9
20260505055935 15 22 4.8 6.4 0.00 0.00 0.00 88 1005.9
20260505055817 15 0 4.8 6.4 0.00 0.00 0.00 89 1005.8
20260505055556 14 0 3.2 6.4 0.00 0.00 0.00 89 1005.7
20260505055447 14 0 3.2 6.4 0.00 0.00 0.00 89 1005.7
20260505055329 14 0 3.2 6.4 0.00 0.00 0.00 89 1005.7
20260505055228 13 0 4.8 6.4 0.00 0.00 0.00 90 1005.6
20260505055118 13 23 3.2 6.4 0.00 0.00 0.00 89 1005.6
20260505055008 13 23 3.2 6.4 0.00 0.00 0.00 89 1005.5
20260505054848 13 23 3.2 6.4 0.00 0.00 0.00 89 1005.4
20260505054739 13 0 3.2 6.4 0.00 0.00 0.00 89 1005.4
20260505054634 13 0 3.2 6.4 0.00 0.00 0.00 89 1005.5
20260505054526 13 0 3.2 6.4 0.00 0.00 0.00 89 1005.6
20260505054404 13 23 3.2 6.4 0.00 0.00 0.00 89 1005.5
20260505054304 13 23 3.2 6.4 0.00 0.00 0.00 89 1005.5
20260505054204 13 23 3.2 6.4 0.00 0.00 0.00 89 1005.4
20260505054043 13 23 3.2 6.4 0.00 0.00 0.00 88 1005.4
20260505053925 13 23 4.8 6.4 0.00 0.00 0.00 88 1005.4
20260505053815 13 23 3.2 6.4 0.00 0.00 0.00 88 1005.5
20260505053707 13 23 4.8 6.4 0.00 0.00 0.00 88 1005.1
20260505053601 13 23 4.8 6.4 0.00 0.00 0.00 88 1005.5
20260505053442 13 23 4.8 6.4 0.00 0.00 0.00 88 1005.4
20260505053334 13 23 4.8 6.4 0.00 0.00 0.00 88 1005.3
20260505053232 13 23 4.8 6.4 0.00 0.00 0.00 88 1005.5
20260505053000 13 23 4.8 6.4 0.00 0.00 0.00 88 1005.6
20260505052851 13 23 3.2 6.4 0.00 0.00 0.00 88 1005.5
20260505052749 13 23 4.8 6.4 0.00 0.00 0.00 88 1005.5
20260505052638 13 23 4.8 6.4 0.00 0.00 0.00 88 1005.4
20260505052518 13 23 4.8 6.4 0.00 0.00 0.00 88 1005.6
20260505052410 13 23 4.8 6.4 0.00 0.00 0.00 88 1005.5
20260505052304 13 23 6.4 6.4 0.00 0.00 0.00 88 1005.6
20260505052200 13 23 4.8 6.4 0.00 0.00 0.00 88 1005.5
20260505052040 13 23 3.2 6.4 0.00 0.00 0.00 88 1005.4
20260505051932 13 23 3.2 6.4 0.00 0.00 0.00 88 1005.7
20260505051823 13 23 3.2 6.4 0.00 0.00 0.00 88 1005.5
20260505051720 13 23 3.2 6.4 0.00 0.00 0.00 88 1005.8
20260505051559 13 23 3.2 6.4 0.00 0.00 0.00 88 1005.4
20260505051447 13 23 3.2 6.4 0.00 0.00 0.00 88 1005.6
20260505051339 13 23 3.2 6.4 0.00 0.00 0.00 87 1005.6
20260505051231 13 23 3.2 6.4 0.00 0.00 0.00 87 1005.6
20260505051113 14 23 3.2 6.4 0.00 0.00 0.00 87 1005.9
20260505051006 14 23 3.2 6.4 0.00 0.00 0.00 87 1005.8
20260505050856 14 23 3.2 6.4 0.00 0.00 0.00 87 1005.7
20260505050754 14 23 3.2 6.4 0.00 0.00 0.00 87 1005.7
20260505050629 14 45 3.2 6.4 0.00 0.00 0.00 86 1005.7
20260505050418 14 23 3.2 6.4 0.00 0.00 0.00 86 1005.6
20260505050311 14 23 4.8 6.4 0.00 0.00 0.00 86 1005.5
20260505050153 14 23 4.8 6.4 0.00 0.00 0.00 86 1005.6
20260505041713 14 45 3.2 3.2 0.00 0.00 0.00 86 1005.8
20260505041613 14 23 3.2 3.2 0.00 0.00 0.00 86 1005.8
20260505041455 14 23 3.2 3.2 0.00 0.00 0.00 86 1005.9
20260505041236 14 45 3.2 3.2 0.00 0.00 0.00 86 1006.2
20260505041127 14 23 3.2 3.2 0.00 0.00 0.00 86 1005.9
20260505041011 14 23 3.2 6.4 0.00 0.00 0.00 86 1005.8
20260505040902 14 23 3.2 6.4 0.00 0.00 0.00 86 1005.9
20260505040751 14 23 3.2 6.4 0.00 0.00 0.00 86 1006.0
20260505040649 14 23 3.2 6.4 0.00 0.00 0.00 86 1005.8
20260505040525 14 23 3.2 6.4 0.00 0.00 0.00 86 1005.9
20260505040425 14 23 3.2 6.4 0.00 0.00 0.00 86 1005.7
20260505040313 14 0 3.2 6.4 0.00 0.00 0.00 85 1006.0
20260505040159 14 0 3.2 6.4 0.00 0.00 0.00 85 1006.0
20260505040041 14 0 3.2 6.4 0.00 0.00 0.00 86 1006.0
20260505035939 14 23 3.2 6.4 0.00 0.00 0.00 86 1005.9
20260505035829 14 23 3.2 3.2 0.00 0.00 0.00 86 1005.8
20260505035718 14 23 3.2 3.2 0.00 0.00 0.00 85 1005.9
20260505035559 14 23 3.2 3.2 0.00 0.00 0.00 85 1006.1
20260505035457 14 0 3.2 3.2 0.00 0.00 0.00 85 1006.0
20260505035349 14 23 3.2 3.2 0.00 0.00 0.00 86 1006.0
20260505035237 14 23 3.2 3.2 0.00 0.00 0.00 86 1006.1
20260505035124 14 23 3.2 3.2 0.00 0.00 0.00 86 1006.0
20260505035014 14 23 3.2 3.2 0.00 0.00 0.00 86 1006.1
20260505034906 14 23 3.2 3.2 0.00 0.00 0.00 86 1006.0
20260505034641 14 23 3.2 3.2 0.00 0.00 0.00 86 1006.1
20260505034533 14 23 3.2 3.2 0.00 0.00 0.00 85 1006.0
20260505034422 14 45 3.2 3.2 0.00 0.00 0.00 85 1006.0
20260505034313 14 23 3.2 6.4 0.00 0.00 0.00 85 1005.9
20260505034155 14 45 3.2 6.4 0.00 0.00 0.00 85 1006.0
20260505034047 14 23 3.2 6.4 0.00 0.00 0.00 85 1006.0
20260505033945 14 23 3.2 6.4 0.00 0.00 0.00 85 1005.9
20260505033835 14 23 3.2 6.4 0.00 0.00 0.00 85 1006.1
20260505033712 14 23 3.2 6.4 0.00 0.00 0.00 85 1005.9
20260505033610 14 23 3.2 6.4 0.00 0.00 0.00 85 1005.9
20260505033457 14 23 3.2 6.4 0.00 0.00 0.00 85 1005.9
20260505033357 14 45 3.2 6.4 0.00 0.00 0.00 85 1006.2
20260505033236 14 45 3.2 6.4 0.00 0.00 0.00 85 1006.0
20260505033124 14 45 3.2 6.4 0.00 0.00 0.00 85 1006.1
20260505033030 14 23 3.2 6.4 0.00 0.00 0.00 85 1006.0
20260505032910 14 23 3.2 6.4 0.00 0.00 0.00 85 1005.8
20260505032752 14 23 3.2 6.4 0.00 0.00 0.00 85 1006.1
20260505032643 14 23 3.2 6.4 0.00 0.00 0.00 85 1006.0
20260505032535 14 45 3.2 6.4 0.00 0.00 0.00 85 1005.8
20260505032432 14 23 3.2 6.4 0.00 0.00 0.00 85 1006.0
20260505032312 14 23 3.2 6.4 0.00 0.00 0.00 85 1005.9
20260505032053 14 23 3.2 6.4 0.00 0.00 0.00 84 1006.1
20260505031942 14 23 3.2 6.4 0.00 0.00 0.00 84 1005.9
20260505031826 14 23 3.2 6.4 0.00 0.00 0.00 84 1005.9
20260505031725 14 23 3.2 6.4 0.00 0.00 0.00 84 1005.8
20260505031608 14 45 3.2 6.4 0.00 0.00 0.00 84 1005.8
20260505031500 14 23 3.2 6.4 0.00 0.00 0.00 84 1005.8
20260505031344 14 45 3.2 6.4 0.00 0.00 0.00 84 1005.7
20260505031308 14 23 3.2 6.4 0.00 0.00 0.00 84 1005.7
20260505031130 14 45 3.2 6.4 0.00 0.00 0.00 84 1005.7
20260505031019 14 23 3.2 6.4 0.00 0.00 0.00 84 1005.8
20260505030904 14 23 3.2 6.4 0.00 0.00 0.00 85 1005.7
20260505030752 14 23 3.2 6.4 0.00 0.00 0.00 85 1005.7
20260505030539 14 45 4.8 6.4 0.00 0.00 0.00 85 1005.8
20260505030422 14 23 4.8 6.4 0.00 0.00 0.00 85 1005.6
20260505030311 14 23 4.8 6.4 0.00 0.00 0.00 85 1005.7
20260505030209 14 45 6.4 6.4 0.00 0.00 0.00 85 1005.7
20260505030057 13 45 6.4 6.4 0.00 0.00 0.00 85 1005.6
20260505025938 13 23 4.8 6.4 0.00 0.00 0.00 85 1005.6
20260505025835 13 23 3.2 6.4 0.00 0.00 0.00 85 1005.7
20260505025723 13 23 3.2 6.4 0.00 0.00 0.00 85 1005.7
20260505025455 13 23 4.8 6.4 0.00 0.00 0.00 85 1005.5
20260505025347 13 45 3.2 6.4 0.00 0.00 0.00 85 1005.4
20260505025245 13 23 3.2 6.4 0.00 0.00 0.00 85 1005.6
20260505025136 13 23 3.2 6.4 0.00 0.00 0.00 85 1005.6
20260505025017 13 23 3.2 6.4 0.00 0.00 0.00 85 1005.4
20260505024906 13 45 3.2 6.4 0.00 0.00 0.00 85 1005.6
20260505024804 13 23 4.8 6.4 0.00 0.00 0.00 85 1005.7
20260505024654 13 23 4.8 6.4 0.00 0.00 0.00 85 1005.6
20260505024533 13 45 4.8 6.4 0.00 0.00 0.00 85 1005.6
20260505024423 13 45 4.8 6.4 0.00 0.00 0.00 85 1005.4
20260505024315 13 23 4.8 6.4 0.00 0.00 0.00 85 1005.7
20260505024212 13 23 4.8 6.4 0.00 0.00 0.00 85 1005.6
20260505023943 13 45 4.8 6.4 0.00 0.00 0.00 85 1005.5
20260505023835 13 45 6.4 6.4 0.00 0.00 0.00 85 1005.6
20260505023733 13 45 4.8 6.4 0.00 0.00 0.00 85 1005.4
20260505023613 13 23 6.4 6.4 0.00 0.00 0.00 85 1005.5
20260505023506 13 45 6.4 6.4 0.00 0.00 0.00 85 1005.6
20260505023355 13 45 4.8 6.4 0.00 0.00 0.00 85 1005.6
20260505023247 13 45 4.8 6.4 0.00 0.00 0.00 84 1005.7
20260505023129 13 23 4.8 6.4 0.00 0.00 0.00 84 1005.6
20260505022914 13 45 4.8 6.4 0.00 0.00 0.00 84 1005.5
20260505022806 13 23 6.4 6.4 0.00 0.00 0.00 84 1005.5
20260505022645 13 23 4.8 6.4 0.00 0.00 0.00 84 1005.5
20260505022536 13 23 4.8 6.4 0.00 0.00 0.00 84 1005.3
20260505022434 13 23 4.8 6.4 0.00 0.00 0.00 84 1005.5
20260505022325 13 23 4.8 6.4 0.00 0.00 0.00 84 1005.6
20260505022206 13 23 4.8 6.4 0.00 0.00 0.00 84 1005.4
20260505022058 13 45 4.8 6.4 0.00 0.00 0.00 84 1005.8
20260505021949 13 23 6.4 6.4 0.00 0.00 0.00 84 1005.5
20260505021839 13 45 6.4 6.4 0.00 0.00 0.00 84 1005.6
20260505021719 13 23 4.8 6.4 0.00 0.00 0.00 84 1005.6
20260505021615 13 23 6.4 6.4 0.00 0.00 0.00 84 1005.6
20260505021523 13 45 4.8 6.4 0.00 0.00 0.00 84 1005.6
20260505021443 13 45 4.8 6.4 0.00 0.00 0.00 84 1005.7
20260505021247 13 45 3.2 6.4 0.00 0.00 0.00 85 1005.6
20260505021132 13 23 3.2 6.4 0.00 0.00 0.00 85 1005.7
20260505021024 13 45 3.2 6.4 0.00 0.00 0.00 85 1005.7
20260505020801 12 45 4.8 6.4 0.00 0.00 0.00 85 1005.6
20260505020656 12 23 3.2 6.4 0.00 0.00 0.00 85 1005.7
20260505020612 12 45 3.2 6.4 0.00 0.00 0.00 86 1005.5
20260505020543 12 23 4.8 6.4 0.00 0.00 0.00 85 1005.4
20260505020316 12 45 4.8 6.4 0.00 0.00 0.00 85 1005.4
20260505020206 12 45 4.8 6.4 0.00 0.00 0.00 85 1005.3
20260505020114 12 45 4.8 6.4 0.00 0.00 0.00 85 1005.5
20260505020046 12 45 4.8 6.4 0.00 0.00 0.00 85 1005.3
20260505015830 12 45 4.8 6.4 0.00 0.00 0.00 86 1005.4
20260505015731 12 45 4.8 6.4 0.00 0.00 0.00 86 1005.3
20260505015622 12 45 4.8 6.4 0.00 0.00 0.00 86 1005.3
20260505015514 12 45 4.8 6.4 0.00 0.00 0.00 86 1005.4
20260505015354 12 45 4.8 6.4 0.00 0.00 0.00 86 1005.4
20260505015244 12 45 4.8 6.4 0.00 0.00 0.00 86 1005.2
20260505015134 12 45 4.8 6.4 0.00 0.00 0.00 86 1005.1
20260505015034 12 45 4.8 6.4 0.00 0.00 0.00 86 1005.6
20260505014924 12 45 4.8 6.4 0.00 0.00 0.00 86 1005.4
20260505014805 12 45 4.8 6.4 0.00 0.00 0.00 87 1005.3
20260505014700 12 45 3.2 6.4 0.00 0.00 0.00 87 1005.4
20260505014426 12 45 3.2 6.4 0.00 0.00 0.00 87 1005.3
20260505014320 12 45 3.2 6.4 0.00 0.00 0.00 87 1005.3
20260505014209 12 45 4.8 6.4 0.00 0.00 0.00 87 1005.3
20260505014101 12 45 3.2 6.4 0.00 0.00 0.00 87 1005.3
20260505013948 12 45 3.2 6.4 0.00 0.00 0.00 87 1005.2
20260505013736 12 45 3.2 6.4 0.00 0.00 0.00 86 1005.4
20260505013622 12 45 3.2 6.4 0.00 0.00 0.00 86 1005.3
20260505013505 12 45 3.2 6.4 0.00 0.00 0.00 86 1005.2
20260505013252 12 45 3.2 6.4 0.00 0.00 0.00 86 1005.5
20260505013142 12 45 3.2 6.4 0.00 0.00 0.00 87 1005.5
20260505013023 12 45 3.2 6.4 0.00 0.00 0.00 86 1005.4
20260505012918 12 45 3.2 6.4 0.00 0.00 0.00 86 1005.3
20260505012816 11 45 3.2 6.4 0.00 0.00 0.00 87 1005.2
20260505012703 11 45 3.2 6.4 0.00 0.00 0.00 87 1005.4
20260505012552 11 45 3.2 6.4 0.00 0.00 0.00 87 1005.2
20260505012443 12 45 3.2 6.4 0.00 0.00 0.00 87 1005.2
20260505012337 12 45 3.2 6.4 0.00 0.00 0.00 87 1005.1
20260505012217 12 45 3.2 6.4 0.00 0.00 0.00 86 1005.1
20260505012057 12 45 3.2 6.4 0.00 0.00 0.00 86 1005.2
20260505011953 12 45 3.2 6.4 0.00 0.00 0.00 86 1005.2
20260505011845 12 45 3.2 6.4 0.00 0.00 0.00 86 1005.2
20260505011733 12 45 3.2 6.4 0.00 0.00 0.00 86 1005.2
20260505011613 12 45 3.2 6.4 0.00 0.00 0.00 86 1005.3
20260505011513 12 45 3.2 6.4 0.00 0.00 0.00 86 1005.0
20260505011437 12 45 4.8 6.4 0.00 0.00 0.00 86 1005.1
20260505011359 12 45 3.2 6.4 0.00 0.00 0.00 86 1005.1
20260505011132 12 45 3.2 6.4 0.00 0.00 0.00 86 1005.1
20260505011037 12 45 3.2 6.4 0.00 0.00 0.00 86 1005.0
20260505010922 12 45 3.2 6.4 0.00 0.00 0.00 86 1005.2
20260505010814 12 23 3.2 6.4 0.00 0.00 0.00 85 1005.1
20260505010653 12 45 4.8 6.4 0.00 0.00 0.00 85 1005.1
20260505010543 12 45 4.8 6.4 0.00 0.00 0.00 85 1005.1
20260505010437 12 45 3.2 6.4 0.00 0.00 0.00 85 1005.1
20260505010327 12 45 4.8 6.4 0.00 0.00 0.00 85 1005.0
20260505010208 12 45 4.8 6.4 0.00 0.00 0.00 85 1005.1
20260505010100 12 23 3.2 6.4 0.00 0.00 0.00 85 1005.0
20260505005952 12 45 4.8 6.4 0.00 0.00 0.00 85 1005.1
20260505005852 12 45 4.8 6.4 0.00 0.00 0.00 85 1005.1
20260505005621 12 23 4.8 6.4 0.00 0.00 0.00 85 1005.1
20260505005512 12 45 4.8 6.4 0.00 0.00 0.00 85 1005.1
20260505005410 12 45 6.4 6.4 0.00 0.00 0.00 85 1005.1
20260505005246 12 45 4.8 6.4 0.00 0.00 0.00 85 1005.0
20260505005136 12 45 4.8 6.4 0.00 0.00 0.00 85 1005.0
20260505005044 12 45 4.8 6.4 0.00 0.00 0.00 85 1005.0
20260505004923 12 45 4.8 6.4 0.00 0.00 0.00 85 1005.0
20260505004805 12 23 4.8 6.4 0.00 0.00 0.00 85 1005.0
20260505004553 12 45 4.8 6.4 0.00 0.00 0.00 85 1005.0
20260505004445 12 45 4.8 6.4 0.00 0.00 0.00 85 1004.9
20260505004321 12 45 4.8 6.4 0.00 0.00 0.00 85 1004.9
20260505004218 12 45 3.2 6.4 0.00 0.00 0.00 85 1005.0
20260505004107 12 45 4.8 6.4 0.00 0.00 0.00 85 1005.2
20260505004003 12 45 3.2 6.4 0.00 0.00 0.00 85 1004.9
20260505003838 12 45 3.2 6.4 0.00 0.00 0.00 85 1004.9
20260505003736 12 45 3.2 6.4 0.00 0.00 0.00 85 1004.9
20260505003630 12 45 3.2 6.4 0.00 0.00 0.00 84 1005.0
20260505003520 12 45 3.2 6.4 0.00 0.00 0.00 85 1005.0
20260505003403 12 45 3.2 6.4 0.00 0.00 0.00 85 1005.0
20260505003254 12 45 4.8 6.4 0.00 0.00 0.00 85 1005.1
20260505003154 12 45 4.8 6.4 0.00 0.00 0.00 85 1004.8
20260505003036 12 45 4.8 6.4 0.00 0.00 0.00 85 1004.9
20260505002918 12 45 4.8 6.4 0.00 0.00 0.00 85 1005.1
20260505002808 11 45 4.8 6.4 0.00 0.00 0.00 85 1005.0
20260505002700 11 45 4.8 6.4 0.00 0.00 0.00 85 1005.0
20260505002555 11 45 4.8 6.4 0.00 0.00 0.00 85 1005.0
20260505002435 11 23 4.8 6.4 0.00 0.00 0.00 85 1004.9
20260505002327 11 45 4.8 6.4 0.00 0.00 0.00 85 1005.0
20260505002227 11 45 3.2 6.4 0.00 0.00 0.00 85 1005.0
20260505001951 11 45 3.2 6.4 0.00 0.00 0.00 85 1004.8
20260505001843 11 45 3.2 6.4 0.00 0.00 0.00 85 1005.0
20260505001742 11 45 3.2 6.4 0.00 0.00 0.00 85 1005.0
20260505001723 11 45 3.2 6.4 0.00 0.00 0.00 85 1005.0
20260505001508 11 45 3.2 6.4 0.00 0.00 0.00 85 1004.8
20260505001400 11 45 3.2 6.4 0.00 0.00 0.00 85 1004.9
20260505001300 11 45 3.2 6.4 0.00 0.00 0.00 84 1005.0
20260505001228 11 45 3.2 6.4 0.00 0.00 0.00 84 1004.9
20260505001035 11 23 3.2 6.4 0.00 0.00 0.00 84 1004.9
20260505000920 11 23 3.2 6.4 0.00 0.00 0.00 84 1004.9
20260505000814 11 23 3.2 6.4 0.00 0.00 0.00 84 1005.0
20260505000731 12 45 4.8 6.4 0.00 0.00 0.00 84 1004.9
20260505000654 12 45 4.8 6.4 0.00 0.00 0.00 84 1005.1
20260505000443 12 45 6.4 6.4 0.00 0.00 0.00 84 1004.9
20260505000332 12 45 4.8 6.4 0.00 0.00 0.00 84 1004.9
20260505000226 11 23 4.8 6.4 0.00 0.00 0.00 84 1005.0
20260505000105 11 45 4.8 6.4 0.00 0.00 0.00 84 1004.9
20260504235955 11 45 3.2 6.4 0.00 0.00 0.00 84 1004.9
20260504235852 11 45 3.2 6.4 0.00 0.00 0.00 84 1004.9
20260504235744 11 45 3.2 6.4 0.00 0.00 0.00 84 1004.9
20260504235623 12 45 3.2 6.4 0.00 0.00 0.00 84 1004.9
20260504235408 12 45 3.2 6.4 0.00 0.00 0.00 83 1004.8
20260504235257 12 23 3.2 6.4 0.00 0.00 0.00 83 1005.0
20260504235139 12 45 3.2 6.4 0.00 0.00 0.00 83 1004.8
20260504234925 12 23 3.2 6.4 0.00 0.00 0.00 83 1004.8
20260504234815 12 45 3.2 6.4 0.00 0.00 0.00 82 1004.8
20260504234657 12 23 3.2 6.4 0.00 0.00 0.00 82 1004.8
20260504234553 12 45 3.2 6.4 0.00 0.00 0.00 82 1004.8
20260504234450 12 45 3.2 6.4 0.00 0.00 0.00 82 1004.7
20260504234334 12 68 3.2 6.4 0.00 0.00 0.00 82 1004.8
20260504234215 12 68 3.2 6.4 0.00 0.00 0.00 82 1004.8
20260504234110 12 68 3.2 6.4 0.00 0.00 0.00 81 1004.6
20260504234007 12 45 3.2 6.4 0.00 0.00 0.00 81 1004.8
20260504233854 12 45 3.2 6.4 0.00 0.00 0.00 81 1005.0
20260504233738 12 45 3.2 6.4 0.00 0.00 0.00 80 1004.7
20260504233629 12 45 4.8 6.4 0.00 0.00 0.00 80 1004.7
20260504233517 12 45 3.2 6.4 0.00 0.00 0.00 81 1004.8
20260504233415 12 45 3.2 6.4 0.00 0.00 0.00 81 1004.7
20260504233256 12 68 3.2 6.4 0.00 0.00 0.00 80 1004.7
20260504233148 12 45 3.2 6.4 0.00 0.00 0.00 80 1004.6
20260504233040 12 68 3.2 6.4 0.00 0.00 0.00 80 1004.7
20260504232810 12 45 3.2 6.4 0.00 0.00 0.00 80 1004.7
20260504232702 12 45 3.2 6.4 0.00 0.00 0.00 81 1004.7
20260504232600 12 45 3.2 3.2 0.00 0.00 0.00 81 1004.6
20260504232446 12 45 3.2 3.2 0.00 0.00 0.00 81 1004.6
20260504232332 12 45 3.2 3.2 0.00 0.00 0.00 82 1004.7
20260504232224 12 45 3.2 3.2 0.00 0.00 0.00 82 1004.6
20260504232115 12 45 3.2 3.2 0.00 0.00 0.00 81 1004.6
20260504232006 12 45 3.2 3.2 0.00 0.00 0.00 81 1004.5
20260504231848 12 45 3.2 3.2 0.00 0.00 0.00 81 1004.4
20260504231740 12 45 3.2 3.2 0.00 0.00 0.00 81 1004.3
20260504231633 12 23 3.2 3.2 0.00 0.00 0.00 81 1004.5
20260504231524 12 23 3.2 3.2 0.00 0.00 0.00 81 1004.4
20260504231409 12 23 3.2 3.2 0.00 0.00 0.00 81 1004.4
20260504231156 12 45 3.2 3.2 0.00 0.00 0.00 82 1004.4
20260504231043 12 23 3.2 3.2 0.00 0.00 0.00 82 1004.4
20260504230923 12 23 3.2 3.2 0.00 0.00 0.00 82 1004.2
20260504230813 12 23 3.2 3.2 0.00 0.00 0.00 81 1004.3
20260504230709 12 23 3.2 3.2 0.00 0.00 0.00 81 1004.3
20260504230600 12 45 3.2 3.2 0.00 0.00 0.00 81 1004.4
20260504230442 12 45 3.2 3.2 0.00 0.00 0.00 80 1004.3
20260504230226 12 45 3.2 3.2 0.00 0.00 0.00 80 1004.2
20260504230118 12 45 3.2 3.2 0.00 0.00 0.00 80 1004.3
20260504225958 12 68 3.2 3.2 0.00 0.00 0.00 81 1004.4
20260504225858 12 45 3.2 3.2 0.00 0.00 0.00 81 1004.2
20260504225747 12 45 3.2 3.2 0.00 0.00 0.00 81 1004.2
20260504225637 12 45 3.2 3.2 0.00 0.00 0.00 81 1004.3
20260504225516 12 45 3.2 3.2 0.00 0.00 0.00 81 1004.2
20260504225407 12 45 3.2 3.2 0.00 0.00 0.00 81 1004.3
20260504225304 12 45 3.2 3.2 0.00 0.00 0.00 81 1004.2
20260504225151 12 45 3.2 3.2 0.00 0.00 0.00 81 1003.9
20260504225034 12 45 3.2 3.2 0.00 0.00 0.00 80 1004.0
20260504224926 12 23 3.2 3.2 0.00 0.00 0.00 80 1004.0
20260504224824 12 23 3.2 3.2 0.00 0.00 0.00 79 1004.1
20260504224713 12 23 3.2 3.2 0.00 0.00 0.00 79 1004.1
20260504224555 12 23 3.2 6.4 0.00 0.00 0.00 79 1004.1
20260504224445 12 23 3.2 6.4 0.00 0.00 0.00 79 1004.0
20260504224337 12 23 3.2 6.4 0.00 0.00 0.00 79 1004.1
20260504224233 13 23 3.2 6.4 0.00 0.00 0.00 79 1004.0
20260504224109 13 23 3.2 6.4 0.00 0.00 0.00 79 1004.0
20260504224000 13 23 3.2 6.4 0.00 0.00 0.00 79 1004.0
20260504223859 13 23 3.2 6.4 0.00 0.00 0.00 79 1003.8
20260504223633 12 23 3.2 6.4 0.00 0.00 0.00 79 1004.1
20260504223523 12 23 3.2 6.4 0.00 0.00 0.00 79 1003.9
20260504223414 12 23 3.2 6.4 0.00 0.00 0.00 78 1004.0
20260504223304 12 23 3.2 6.4 0.00 0.00 0.00 78 1003.6
20260504223152 13 23 3.2 6.4 0.00 0.00 0.00 78 1003.9
20260504223042 13 23 3.2 6.4 0.00 0.00 0.00 78 1004.0
20260504222940 13 23 3.2 6.4 0.00 0.00 0.00 77 1003.9
20260504222824 13 23 4.8 6.4 0.00 0.00 0.00 77 1003.8
20260504222703 13 23 4.8 6.4 0.00 0.00 0.00 76 1003.8
20260504222555 13 23 4.8 6.4 0.00 0.00 0.00 76 1003.8
20260504222501 13 23 4.8 6.4 0.00 0.00 0.00 76 1004.0
20260504222346 13 23 4.8 6.4 0.00 0.00 0.00 76 1003.8
20260504222231 13 23 3.2 6.4 0.00 0.00 0.00 76 1003.9
20260504222121 13 23 3.2 3.2 0.00 0.00 0.00 76 1003.9
20260504222028 13 23 3.2 3.2 0.00 0.00 0.00 76 1003.9
20260504221952 13 23 3.2 3.2 0.00 0.00 0.00 76 1003.9
20260504221746 13 23 3.2 3.2 0.00 0.00 0.00 77 1004.0
20260504221525 13 23 3.2 6.4 0.00 0.00 0.00 77 1003.9
20260504221423 13 23 3.2 6.4 0.00 0.00 0.00 77 1003.8
20260504221304 13 23 3.2 6.4 0.00 0.00 0.00 76 1003.7
20260504221044 13 23 3.2 6.4 0.00 0.00 0.00 76 1003.5
20260504220936 13 23 3.2 6.4 0.00 0.00 0.00 75 1003.5
20260504220815 13 23 3.2 6.4 0.00 0.00 0.00 75 1003.4
20260504220707 13 23 3.2 6.4 0.00 0.00 0.00 74 1003.5
20260504220605 13 23 3.2 6.4 0.00 0.00 0.00 74 1003.7
20260504220456 13 23 3.2 6.4 0.00 0.00 0.00 74 1003.5
20260504220339 14 23 3.2 6.4 0.00 0.00 0.00 73 1003.5
20260504220231 14 23 3.2 6.4 0.00 0.00 0.00 73 1003.5
20260504220121 14 23 4.8 6.4 0.00 0.00 0.00 73 1003.5
20260504220012 14 23 3.2 6.4 0.00 0.00 0.00 73 1003.6
20260504215855 14 23 3.2 6.4 0.00 0.00 0.00 73 1003.5
20260504215744 14 23 3.2 6.4 0.00 0.00 0.00 73 1003.5
20260504215644 13 23 3.2 6.4 0.00 0.00 0.00 73 1003.5
20260504215532 13 23 3.2 6.4 0.00 0.00 0.00 73 1003.5
20260504215412 13 23 3.2 6.4 0.00 0.00 0.00 72 1003.4
20260504215305 13 23 3.2 6.4 0.00 0.00 0.00 72 1003.5
20260504215156 14 23 3.2 6.4 0.00 0.00 0.00 72 1003.4
20260504215046 14 23 3.2 6.4 0.00 0.00 0.00 71 1003.3
20260504214930 14 23 3.2 6.4 0.00 0.00 0.00 71 1003.3
20260504214828 14 23 3.2 6.4 0.00 0.00 0.00 70 1003.5
20260504214752 15 23 3.2 6.4 0.00 0.00 0.00 70 1003.3
20260504214716 15 23 3.2 9.7 0.00 0.00 0.00 70 1003.6
20260504214450 15 45 3.2 9.7 0.00 0.00 0.00 70 1003.5
20260504214341 15 45 3.2 9.7 0.00 0.00 0.00 69 1003.4
20260504214233 15 45 3.2 9.7 0.00 0.00 0.00 69 1003.5
20260504214124 15 23 3.2 9.7 0.00 0.00 0.00 69 1003.4
20260504213855 15 23 3.2 9.7 0.00 0.00 0.00 68 1003.4
20260504213755 15 23 4.8 9.7 0.00 0.00 0.00 67 1003.4
20260504213710 16 23 6.4 9.7 0.00 0.00 0.00 66 1003.3
20260504213524 16 23 3.2 6.4 0.00 0.00 0.00 68 1003.4
20260504213423 16 23 3.2 3.2 0.00 0.00 0.00 67 1003.4
20260504213311 16 23 3.2 3.2 0.00 0.00 0.00 67 1003.3
20260504213202 16 23 3.2 3.2 0.00 0.00 0.00 67 1003.3
20260504213051 16 23 3.2 3.2 0.00 0.00 0.00 67 1002.9
20260504212934 16 23 3.2 3.2 0.00 0.00 0.00 67 1003.1
20260504212826 16 23 3.2 3.2 0.00 0.00 0.00 66 1003.3
20260504212718 16 45 3.2 3.2 0.00 0.00 0.00 66 1003.2
20260504212558 16 23 3.2 3.2 0.00 0.00 0.00 66 1003.2
20260504212456 16 45 3.2 3.2 0.00 0.00 0.00 65 1003.2
20260504212347 16 45 3.2 3.2 0.00 0.00 0.00 65 1003.1
20260504212240 17 23 3.2 3.2 0.00 0.00 0.00 65 1003.2
20260504212205 17 23 3.2 3.2 0.00 0.00 0.00 64 1003.2
20260504212136 17 45 3.2 3.2 0.00 0.00 0.00 64 1003.3
20260504211906 17 45 3.2 3.2 0.00 0.00 0.00 64 1003.1
20260504211756 17 45 3.2 3.2 0.00 0.00 0.00 63 1003.3
20260504211638 17 45 3.2 3.2 0.00 0.00 0.00 62 1003.2
20260504211546 17 45 3.2 3.2 0.00 0.00 0.00 62 1003.2
20260504211420 18 45 3.2 3.2 0.00 0.00 0.00 61 1003.2
20260504211317 18 45 3.2 3.2 0.00 0.00 0.00 60 1003.1
20260504211153 18 23 3.2 3.2 0.00 0.00 0.00 60 1003.1
20260504211044 18 23 3.2 6.4 0.00 0.00 0.00 60 1003.3
20260504210943 18 23 3.2 6.4 0.00 0.00 0.00 60 1003.2
20260504210832 18 23 3.2 6.4 0.00 0.00 0.00 59 1003.4
20260504210712 18 23 3.2 6.4 0.00 0.00 0.00 58 1003.2
20260504210628 18 23 3.2 6.4 0.00 0.00 0.00 58 1003.3
20260504210552 19 23 3.2 9.7 0.00 0.00 0.00 57 1003.3
20260504210349 19 23 3.2 9.7 0.00 0.00 0.00 57 1003.3
20260504210228 20 23 3.2 9.7 0.00 0.00 0.00 56 1003.3
20260504210126 20 23 3.2 9.7 0.00 0.00 0.00 56 1003.2
20260504210051 20 23 3.2 9.7 0.00 0.00 0.00 55 1003.3
20260504205904 20 0 4.8 9.7 0.00 0.00 0.00 54 1003.3
20260504205746 20 0 4.8 9.7 0.00 0.00 0.00 54 1003.3
20260504205641 20 0 4.8 9.7 0.00 0.00 0.00 53 1003.4
20260504205605 21 0 6.4 9.7 0.00 0.00 0.00 53 1003.4
20260504205537 21 0 6.4 9.7 0.00 0.00 0.00 52 1003.4
20260504205310 21 0 6.4 9.7 0.00 0.00 0.00 53 1003.4
20260504205159 21 0 6.4 9.7 0.00 0.00 0.00 52 1003.5
20260504205050 21 0 6.4 9.7 0.00 0.00 0.00 52 1003.3
20260504204942 21 22 6.4 9.7 0.00 0.00 0.00 51 1003.5
20260504204824 21 22 6.4 9.7 0.00 0.00 0.00 51 1003.6
20260504204714 21 22 6.4 9.7 0.00 0.00 0.00 51 1003.3
20260504204613 21 22 6.4 9.7 0.00 0.00 0.00 51 1003.5
20260504204521 21 22 6.4 9.7 0.00 0.00 0.00 51 1003.5
20260504204342 21 22 6.4 9.7 0.00 0.00 0.00 51 1003.5
20260504204232 21 22 3.2 9.7 0.00 0.00 0.00 52 1003.6
20260504204130 21 22 4.8 9.7 0.00 0.00 0.00 52 1003.5
20260504204017 22 22 4.8 9.7 0.00 0.00 0.00 52 1003.4
20260504203751 22 22 6.4 9.7 0.00 0.00 0.00 51 1003.4
20260504203643 22 22 6.4 9.7 0.00 0.00 0.00 49 1003.6
20260504203535 22 22 6.4 9.7 0.00 0.00 0.00 50 1003.6
20260504203424 22 45 6.4 9.7 0.00 0.00 0.00 49 1003.7
20260504203310 22 22 6.4 9.7 0.00 0.00 0.00 48 1003.6
20260504203208 22 22 6.4 9.7 0.00 0.00 0.00 48 1003.4
20260504203052 22 22 6.4 11.3 0.00 0.00 0.00 48 1003.5
20260504202934 22 22 6.4 11.3 0.00 0.00 0.00 47 1003.5
20260504202724 22 22 6.4 11.3 0.00 0.00 0.00 47 1003.6
20260504202616 22 0 6.4 12.9 0.00 0.00 0.00 47 1003.6
20260504202524 22 22 6.4 12.9 0.00 0.00 0.00 47 1003.6
20260504202447 23 45 6.4 12.9 0.00 0.00 0.00 46 1003.6
20260504202237 23 22 6.4 14.5 0.00 0.00 0.00 46 1003.6
20260504202136 23 22 8.0 14.5 0.00 0.00 0.00 46 1003.6
20260504202028 23 22 9.7 14.5 0.00 0.00 0.00 46 1003.7
20260504201940 23 22 8.0 14.5 0.00 0.00 0.00 46 1003.6
20260504201802 23 22 6.4 17.7 0.00 0.00 0.00 46 1003.7
20260504201654 23 22 8.0 17.7 0.00 0.00 0.00 46 1003.7
20260504201535 23 22 11.3 17.7 0.00 0.00 0.00 46 1003.5
20260504201426 23 22 6.4 17.7 0.00 0.00 0.00 46 1003.4
20260504201321 23 22 8.0 17.7 0.00 0.00 0.00 46 1003.7
20260504201208 23 22 11.3 17.7 0.00 0.00 0.00 45 1003.5
20260504201050 23 22 9.7 17.7 0.00 0.00 0.00 46 1003.5
20260504200945 23 22 11.3 17.7 0.00 0.00 0.00 45 1003.6
20260504200918 23 22 11.3 17.7 0.00 0.00 0.00 45 1003.7
20260504200723 23 45 6.4 14.5 0.00 0.00 0.00 45 1003.7
20260504200605 23 22 6.4 14.5 0.00 0.00 0.00 46 1003.5
20260504200458 23 22 8.0 14.5 0.00 0.00 0.00 45 1003.6
20260504200356 23 45 6.4 14.5 0.00 0.00 0.00 45 1003.6
20260504200124 23 22 8.0 14.5 0.00 0.00 0.00 45 1003.5
20260504200015 23 22 6.4 12.9 0.00 0.00 0.00 46 1003.6
20260504195911 23 22 9.7 12.9 0.00 0.00 0.00 46 1003.6
20260504195801 23 22 8.0 14.5 0.00 0.00 0.00 45 1003.3
20260504195643 23 22 11.3 17.7 0.00 0.00 0.00 45 1003.3
20260504195535 23 22 8.0 17.7 0.00 0.00 0.00 45 1003.5
20260504195427 23 22 6.4 17.7 0.00 0.00 0.00 45 1003.5
20260504195322 23 45 6.4 17.7 0.00 0.00 0.00 45 1003.5
20260504195204 23 0 8.0 17.7 0.00 0.00 0.00 45 1003.5
20260504195056 23 22 6.4 17.7 0.00 0.00 0.00 46 1003.6
20260504194944 23 22 8.0 17.7 0.00 0.00 0.00 45 1003.5
20260504194836 23 22 9.7 17.7 0.00 0.00 0.00 45 1003.5
20260504194728 23 45 12.9 17.7 0.00 0.00 0.00 45 1003.5
20260504194609 23 22 6.4 17.7 0.00 0.00 0.00 45 1003.5
20260504194501 23 22 8.0 17.7 0.00 0.00 0.00 45 1003.4
20260504194355 23 45 11.3 17.7 0.00 0.00 0.00 45 1003.6
20260504194235 23 22 11.3 17.7 0.00 0.00 0.00 45 1003.5
20260504194130 23 22 12.9 17.7 0.00 0.00 0.00 44 1003.5
20260504194022 23 22 9.7 17.7 0.00 0.00 0.00 44 1003.7
20260504193911 23 45 9.7 17.7 0.00 0.00 0.00 44 1003.5
20260504193758 23 0 11.3 17.7 0.00 0.00 0.00 44 1003.7
20260504193540 23 45 9.7 17.7 0.00 0.00 0.00 44 1003.6
20260504193430 23 22 9.7 17.7 0.00 0.00 0.00 44 1003.6
20260504193328 23 22 9.7 17.7 0.00 0.00 0.00 44 1003.7
20260504193251 23 22 11.3 17.7 0.00 0.00 0.00 44 1003.5
20260504193057 23 45 8.0 17.7 0.00 0.00 0.00 44 1003.7
20260504192948 23 22 12.9 20.9 0.00 0.00 0.00 44 1003.8
20260504192829 23 22 12.9 20.9 0.00 0.00 0.00 43 1003.7
20260504192727 23 22 9.7 20.9 0.00 0.00 0.00 45 1003.6
20260504192623 23 22 11.3 20.9 0.00 0.00 0.00 44 1003.7
20260504192511 23 22 12.9 20.9 0.00 0.00 0.00 44 1003.5
20260504192353 23 0 9.7 20.9 0.00 0.00 0.00 44 1003.6
20260504192243 23 45 8.0 20.9 0.00 0.00 0.00 44 1003.7
20260504192031 23 0 12.9 17.7 0.00 0.00 0.00 45 1003.7
20260504191911 24 45 12.9 17.7 0.00 0.00 0.00 45 1003.6
20260504191803 24 293 11.3 17.7 0.00 0.00 0.00 44 1003.6
20260504191654 24 22 8.0 17.7 0.00 0.00 0.00 44 1003.6
20260504191545 24 22 9.7 17.7 0.00 0.00 0.00 44 1003.8
20260504191429 24 22 9.7 17.7 0.00 0.00 0.00 43 1003.6
20260504191318 24 45 6.4 17.7 0.00 0.00 0.00 43 1003.8
20260504191209 24 45 8.0 17.7 0.00 0.00 0.00 43 1003.6
20260504190944 24 293 12.9 17.7 0.00 0.00 0.00 43 1003.8
20260504190836 24 293 12.9 17.7 0.00 0.00 0.00 43 1003.8
20260504190727 24 293 6.4 17.7 0.00 0.00 0.00 43 1003.8
20260504190626 23 22 8.0 17.7 0.00 0.00 0.00 45 1003.6
20260504190506 23 45 11.3 17.7 0.00 0.00 0.00 44 1003.8
20260504190355 23 22 12.9 17.7 0.00 0.00 0.00 43 1003.7
20260504190244 23 293 6.4 17.7 0.00 0.00 0.00 43 1003.6
20260504190142 23 45 6.4 17.7 0.00 0.00 0.00 43 1003.7
20260504190018 23 22 11.3 17.7 0.00 0.00 0.00 44 1003.6
20260504185908 23 45 12.9 17.7 0.00 0.00 0.00 43 1004.0
20260504185806 23 45 12.9 17.7 0.00 0.00 0.00 42 1003.9
20260504185658 24 45 12.9 17.7 0.00 0.00 0.00 43 1003.8
20260504185544 24 45 12.9 17.7 0.00 0.00 0.00 43 1003.8
20260504185434 23 45 12.9 14.5 0.00 0.00 0.00 43 1003.9
20260504185324 23 293 6.4 14.5 0.00 0.00 0.00 44 1003.9
20260504185213 23 22 9.7 14.5 0.00 0.00 0.00 43 1003.8
20260504185057 23 22 6.4 14.5 0.00 0.00 0.00 44 1003.9
20260504184947 23 22 12.9 20.9 0.00 0.00 0.00 44 1004.1
20260504184839 23 22 12.9 20.9 0.00 0.00 0.00 44 1004.2
20260504184737 23 22 9.7 20.9 0.00 0.00 0.00 43 1004.0
20260504184620 23 45 9.7 20.9 0.00 0.00 0.00 43 1003.9
20260504184358 23 45 9.7 20.9 0.00 0.00 0.00 44 1003.9
20260504184256 23 45 11.3 20.9 0.00 0.00 0.00 44 1004.0
20260504184130 23 45 11.3 20.9 0.00 0.00 0.00 43 1004.0
20260504184035 23 45 12.9 20.9 0.00 0.00 0.00 43 1004.0
20260504183921 23 0 12.9 20.9 0.00 0.00 0.00 43 1004.0
20260504183813 23 293 11.3 20.9 0.00 0.00 0.00 43 1003.9
20260504183654 23 45 8.0 20.9 0.00 0.00 0.00 43 1003.9
20260504183546 23 22 6.4 20.9 0.00 0.00 0.00 44 1004.0
20260504183433 23 22 6.4 20.9 0.00 0.00 0.00 44 1003.9
20260504183324 23 22 6.4 20.9 0.00 0.00 0.00 44 1003.9
20260504183213 23 45 6.4 20.9 0.00 0.00 0.00 43 1003.9
20260504183102 23 45 9.7 20.9 0.00 0.00 0.00 44 1003.9
20260504183002 23 22 14.5 20.9 0.00 0.00 0.00 43 1003.8
20260504182852 23 45 11.3 17.7 0.00 0.00 0.00 43 1004.0
20260504182724 23 45 9.7 17.7 0.00 0.00 0.00 43 1003.9
20260504182621 23 22 12.9 17.7 0.00 0.00 0.00 43 1003.8
20260504182510 23 0 12.9 17.7 0.00 0.00 0.00 43 1004.0
20260504182400 23 0 12.9 17.7 0.00 0.00 0.00 42 1003.9
20260504182241 23 45 11.3 17.7 0.00 0.00 0.00 43 1004.0
20260504182140 24 22 9.7 17.7 0.00 0.00 0.00 42 1004.1
20260504182031 24 293 11.3 17.7 0.00 0.00 0.00 43 1004.2
20260504181806 23 45 12.9 17.7 0.00 0.00 0.00 42 1004.0
20260504181658 23 293 11.3 17.7 0.00 0.00 0.00 43 1004.5
20260504181548 23 45 9.7 17.7 0.00 0.00 0.00 42 1004.1
20260504181437 23 293 11.3 17.7 0.00 0.00 0.00 43 1004.2
20260504181324 23 22 11.3 17.7 0.00 0.00 0.00 43 1004.1
20260504181212 23 45 12.9 17.7 0.00 0.00 0.00 43 1004.1
20260504181104 23 45 9.7 17.7 0.00 0.00 0.00 43 1004.3
20260504180955 23 293 11.3 17.7 0.00 0.00 0.00 43 1004.3
20260504180836 23 293 12.9 17.7 0.00 0.00 0.00 43 1004.3
20260504180728 23 293 12.9 17.7 0.00 0.00 0.00 43 1004.4
20260504180628 23 293 9.7 17.7 0.00 0.00 0.00 43 1004.3
20260504180516 23 45 12.9 17.7 0.00 0.00 0.00 43 1004.3
20260504180400 23 293 12.9 17.7 0.00 0.00 0.00 43 1004.2
20260504180249 23 293 12.9 17.7 0.00 0.00 0.00 43 1004.3
20260504180140 23 0 12.9 17.7 0.00 0.00 0.00 44 1004.3
20260504180035 23 22 11.3 17.7 0.00 0.00 0.00 43 1004.4
20260504175917 23 22 11.3 17.7 0.00 0.00 0.00 43 1004.5
20260504175805 23 22 6.4 17.7 0.00 0.00 0.00 44 1004.6
20260504175657 23 22 8.0 17.7 0.00 0.00 0.00 43 1004.5
20260504175549 23 45 12.9 17.7 0.00 0.00 0.00 43 1004.5
20260504175437 23 45 6.4 17.7 0.00 0.00 0.00 43 1004.4
20260504175221 23 22 12.9 17.7 0.00 0.00 0.00 44 1004.6
20260504175110 23 22 8.0 17.7 0.00 0.00 0.00 43 1004.5
20260504175002 23 45 8.0 17.7 0.00 0.00 0.00 43 1004.7
20260504174935 23 45 8.0 17.7 0.00 0.00 0.00 43 1004.7
20260504174733 23 293 8.0 17.7 0.00 0.00 0.00 43 1004.7
20260504174624 23 293 12.9 17.7 0.00 0.00 0.00 43 1004.6
20260504174514 23 293 12.9 17.7 0.00 0.00 0.00 43 1004.8
20260504174358 23 22 12.9 17.7 0.00 0.00 0.00 43 1004.8
20260504174254 23 293 12.9 17.7 0.00 0.00 0.00 44 1004.7
20260504174144 23 22 9.7 22.5 0.00 0.00 0.00 44 1004.6
20260504174035 23 22 12.9 22.5 0.00 0.00 0.00 45 1004.7
20260504173826 23 22 9.7 22.5 0.00 0.00 0.00 44 1004.9
20260504173703 23 22 9.7 22.5 0.00 0.00 0.00 46 1004.7
20260504173546 23 45 12.9 22.5 0.00 0.00 0.00 45 1004.9